Theta_e
303 306 309 310 310 310 309 310 311 311 311 310 310 311 312 312 308 304 303 304 304 304 304 304 304 304 304 305 305 306 306 306 307 306 308 309 308 308 307 308 308 309 311 312 311 310 309 309 309 308 308 310 314 316 316 317 316 315 319 319 316 316 315 317 319 315 314 315 315 312 312 313 313 328 340 342 341 340 340 340 340 341 340 340 341 339 342 346
303 304 307 310 310 310 310 311 312 311 310 310 309 309 311 313 312 308 304 303 304 304 304 304 304 304 304 305 305 306 306 306 307 308 311 312 310 308 308 308 308 309 311 312 310 309 308 308 309 308 309 313 315 316 316 316 316 315 317 317 317 318 314 313 316 314 313 314 314 312 313 312 312 318 328 343 342 339 345 343 339 341 341 342 341 341 344 346
303 303 304 308 310 311 311 311 312 312 311 310 309 309 310 311 313 310 306 303 303 303 304 304 304 304 303 304 305 305 305 306 308 312 315 314 311 309 308 308 308 309 312 311 310 309 308 309 310 310 312 315 315 315 315 315 315 314 313 317 320 317 314 311 312 314 313 313 312 312 312 311 315 312 317 338 340 339 348 346 340 341 341 342 342 343 345 346
302 303 303 306 309 311 311 311 312 312 311 310 309 309 309 310 312 311 307 304 303 304 303 304 304 304 303 303 304 305 305 309 313 314 316 316 314 311 308 308 308 309 311 311 311 310 308 310 311 312 314 314 313 314 314 313 314 312 312 318 317 312 312 313 312 314 314 313 312 312 312 312 315 312 321 336 339 338 339 339 339 339 340 341 342 345 346 345
302 303 303 304 307 309 311 311 312 312 312 311 309 309 309 309 311 311 310 306 304 304 304 304 304 304 303 302 303 304 306 316 319 315 317 317 316 314 311 309 309 309 311 310 311 310 309 311 313 313 314 312 312 314 313 313 312 312 312 313 313 310 312 314 312 314 313 313 312 311 312 314 313 313 324 331 334 335 331 331 331 330 336 338 341 345 345 344
301 302 302 303 304 307 309 311 311 312 312 311 310 309 309 309 310 312 312 310 306 304 304 304 304 304 303 303 303 304 307 317 319 315 316 317 317 315 313 310 309 310 310 311 311 310 309 311 313 312 312 312 313 314 314 313 312 314 314 310 311 312 311 313 313 313 313 312 312 312 312 313 313 312 318 321 322 325 321 324 330 331 334 335 340 344 344 343
302 302 302 302 303 304 306 309 310 311 312 311 311 309 308 309 309 311 312 312 309 305 304 304 304 304 303 303 303 304 306 311 316 316 317 317 318 316 313 311 309 310 311 312 311 309 309 311 312 312 313 313 312 313 314 313 311 313 314 311 312 312 311 313 313 312 312 311 311 312 312 312 313 311 315 321 322 323 320 323 330 334 337 339 343 343 343 343
301 301 302 302 302 303 304 306 308 310 311 311 311 310 309 309 308 310 311 312 312 308 306 304 304 303 303 303 303 306 306 308 314 318 317 317 318 316 314 312 309 310 310 311 311 309 309 312 312 312 314 314 312 313 312 311 311 312 313 311 312 311 311 313 312 312 312 312 312 311 311 311 313 312 320 330 329 330 329 330 335 338 339 340 342 342 343 342
301 301 301 302 302 303 303 303 305 308 310 311 311 311 310 309 308 309 310 311 312 311 309 307 305 303 303 303 305 307 307 311 315 316 316 316 316 314 313 312 310 310 310 310 310 308 309 311 313 313 314 313 311 312 310 311 312 311 312 310 310 311 312 312 312 313 312 311 311 311 311 312 312 314 325 334 333 335 336 337 338 338 339 340 341 342 342 342
302 301 301 301 302 303 303 303 303 305 307 310 311 311 310 310 308 308 308 310 312 312 311 310 308 305 303 303 306 307 309 315 316 315 315 314 314 313 313 312 311 310 309 309 308 309 311 311 313 313 315 312 311 311 309 310 312 310 310 310 311 310 311 312 312 313 311 310 311 311 313 312 310 314 326 334 336 338 337 339 339 338 339 340 341 341 341 341
303 302 301 301 302 302 303 303 303 303 304 307 309 310 310 310 309 308 307 308 310 311 312 312 310 308 305 304 305 307 311 315 316 315 314 313 312 311 311 311 311 309 308 308 308 311 312 313 314 314 314 313 311 311 309 310 311 311 310 311 312 309 310 311 310 310 310 311 311 311 313 310 310 314 324 333 338 339 338 339 339 339 339 339 340 340 341 341
303 303 302 301 301 302 303 303 303 303 303 304 306 308 309 309 309 308 307 307 308 310 311 312 311 310 307 305 305 307 310 315 316 315 314 314 312 309 309 310 310 309 308 308 310 313 313 313 314 314 313 313 313 311 310 311 311 312 311 313 315 312 314 312 309 309 310 313 311 311 311 311 313 311 321 335 339 340 339 339 339 338 339 339 340 340 341 341
303 303 303 302 301 301 303 303 303 303 303 303 304 306 307 309 309 308 307 307 307 309 311 312 311 310 309 307 307 307 311 315 316 315 315 313 311 308 308 308 308 308 308 308 310 312 312 313 313 313 313 313 313 312 312 311 310 312 310 312 316 315 318 312 308 309 310 313 312 311 312 316 319 309 322 341 340 340 339 338 340 339 339 339 340 340 340 340
303 303 303 303 302 301 302 303 303 303 303 303 303 304 305 307 308 308 307 307 307 308 311 312 311 311 310 309 308 308 310 314 315 314 315 313 310 308 307 308 308 307 308 308 309 310 311 312 312 312 312 313 313 310 312 313 313 313 310 314 315 312 319 315 309 310 311 313 312 312 312 316 320 312 327 343 339 340 340 338 340 339 339 339 340 340 339 339
303 303 303 303 303 302 302 302 303 303 303 303 303 303 304 305 306 306 306 307 307 309 311 311 311 311 310 311 308 309 310 312 314 314 315 313 310 308 308 308 307 307 308 309 309 310 310 311 311 312 312 312 312 313 316 317 319 316 311 318 318 312 318 318 311 311 312 313 310 311 313 316 317 316 333 344 340 340 339 339 339 338 339 339 339 339 339 339
302 302 303 303 303 303 302 302 303 304 303 304 304 303 304 304 305 305 306 308 308 310 311 311 312 311 312 313 310 312 313 313 314 315 315 313 310 310 311 310 310 311 310 311 311 310 311 312 312 311 311 309 313 319 320 319 325 323 315 318 320 314 317 319 314 310 310 311 310 311 316 319 316 317 335 343 340 341 339 340 339 337 338 338 338 338 338 338
302 302 302 302 303 303 303 302 303 303 304 304 304 304 305 305 306 307 308 310 312 313 312 312 313 312 314 314 312 313 314 314 315 315 316 314 311 312 312 312 312 312 313 313 312 312 312 312 311 311 313 314 316 320 318 316 322 324 320 320 320 317 315 317 318 312 308 311 312 311 315 320 316 322 337 344 340 340 339 340 339 337 337 336 337 337 337 338
302 302 302 302 303 303 303 303 302 303 304 305 306 306 307 308 310 311 313 315 317 315 312 312 312 311 311 310 311 313 314 314 314 316 316 314 312 312 312 312 312 313 313 311 311 313 311 310 311 313 316 318 319 320 319 319 321 320 319 320 319 318 316 317 319 315 312 312 312 311 313 316 316 328 340 343 341 341 339 340 339 337 336 335 337 338 338 338
302 302 302 302 302 302 303 303 303 303 304 306 307 307 309 311 313 315 316 318 317 315 314 313 311 311 311 310 311 312 313 314 314 315 316 314 312 311 312 311 312 312 310 311 311 310 310 310 311 313 315 317 318 318 318 320 321 317 315 315 317 317 317 317 317 315 313 312 313 312 313 313 318 332 341 342 341 340 339 340 340 337 335 334 336 337 338 338
301 302 302 302 302 302 303 303 303 304 304 306 307 307 310 311 313 315 316 316 315 314 315 314 313 313 313 313 313 313 314 314 314 315 315 314 312 311 312 311 312 311 311 315 314 309 310 312 313 316 319 321 322 319 317 318 317 314 314 315 316 316 317 317 315 316 314 312 313 314 317 317 323 335 339 340 341 340 340 340 339 338 334 334 337 337 338 338
301 301 302 302 302 302 302 303 304 304 303 306 306 308 310 310 312 314 314 314 314 314 314 314 314 314 314 314 314 314 314 315 315 315 314 314 313 312 311 311 312 312 311 311 311 312 312 313 317 320 320 323 326 321 317 316 316 315 316 318 317 317 318 316 315 318 316 313 314 314 319 319 323 333 336 337 340 339 339 339 339 339 336 335 337 337 337 338
301 301 301 302 302 302 302 302 303 304 304 305 306 308 311 311 310 312 312 313 314 315 315 315 314 314 314 314 315 315 314 315 315 315 314 313 313 312 310 311 313 315 313 310 311 314 314 316 320 319 317 319 322 322 320 317 318 319 317 317 318 317 317 317 319 322 318 316 315 315 318 318 321 328 329 332 338 338 336 338 339 339 337 337 336 337 337 337
301 301 301 302 302 302 302 302 303 303 304 305 306 308 311 309 309 311 312 313 315 315 315 315 315 314 315 314 314 314 314 315 315 316 315 312 312 312 310 311 313 314 313 312 314 315 314 317 318 314 315 317 318 320 323 319 318 320 318 317 318 316 316 318 322 324 320 318 318 320 320 320 322 324 322 324 329 331 333 335 337 338 337 337 336 336 336 337
301 301 301 301 301 302 302 302 302 304 305 305 306 309 310 309 312 315 314 314 317 317 314 315 315 314 314 314 314 314 314 314 315 316 315 313 312 311 310 311 312 312 312 314 315 314 314 314 312 314 319 319 315 319 322 317 318 325 323 317 319 319 317 318 320 324 326 321 320 327 325 320 324 325 324 324 323 325 330 332 335 336 336 336 335 335 335 336
301 301 302 301 301 302 302 302 304 305 306 306 307 310 309 309 314 315 314 317 320 318 315 315 315 315 314 314 314 314 314 315 315 316 315 314 312 311 311 310 311 312 312 313 313 313 314 311 309 316 319 317 315 319 322 319 319 326 326 322 322 323 320 320 322 325 331 323 317 323 324 319 326 329 325 324 324 325 328 330 332 333 335 335 334 335 334 335
300 301 301 301 302 302 301 303 304 304 304 305 308 310 309 311 315 315 316 322 324 321 318 316 316 316 314 314 314 314 315 316 315 316 315 314 313 312 311 309 311 312 312 313 313 315 316 311 311 316 320 318 316 318 323 322 318 320 324 324 323 325 323 323 326 324 324 321 317 320 322 321 326 328 323 321 323 326 329 330 330 330 333 334 333 334 334 335
300 300 301 301 302 301 302 302 303 302 303 306 310 311 309 311 314 313 315 320 321 320 317 315 314 314 314 314 314 315 317 317 315 315 315 315 314 312 312 312 311 310 310 312 314 316 315 314 315 319 323 321 317 320 324 320 318 320 323 322 323 324 323 324 329 325 321 319 319 324 326 321 321 323 323 321 320 324 329 332 329 327 330 332 332 332 334 336
300 300 300 301 301 301 302 301 302 302 306 310 313 312 311 312 313 315 318 314 312 315 315 314 313 312 312 315 315 315 317 315 315 315 315 315 313 311 312 312 311 312 312 311 317 318 316 316 318 320 322 320 321 326 323 317 318 322 321 320 322 323 326 331 331 328 325 318 319 329 326 320 324 330 326 321 321 325 330 333 330 326 327 330 332 332 332 334
299 299 300 300 301 301 301 301 302 303 309 315 315 314 312 311 312 316 317 313 310 315 314 314 315 312 312 314 314 315 314 314 314 314 314 314 313 312 312 310 311 313 310 311 318 320 314 313 314 318 319 320 326 325 318 317 318 318 316 317 319 321 327 333 329 327 328 321 320 328 322 315 327 333 326 320 322 327 330 330 327 323 325 328 330 331 331 331
299 299 300 300 301 301 301 302 302 302 308 315 316 315 312 313 319 317 313 312 313 314 313 313 315 312 312 314 313 314 314 314 314 312 312 313 312 312 311 310 310 313 316 318 319 317 313 312 312 316 316 318 323 316 310 313 314 313 318 319 318 322 329 333 331 328 325 323 324 326 322 317 322 328 326 321 318 319 321 324 324 322 323 327 327 329 331 330
300 299 299 300 300 301 301 302 303 303 308 314 316 315 310 314 322 318 313 313 315 316 315 314 314 312 312 313 314 314 313 314 313 312 313 313 312 311 311 312 312 318 326 324 319 316 315 313 314 315 312 312 316 312 307 309 312 315 322 321 317 322 327 327 329 327 322 325 326 325 322 318 318 323 322 320 318 317 318 320 320 319 319 324 327 328 330 330
300 300 300 300 300 301 301 302 303 307 310 313 313 314 314 314 315 317 318 316 315 318 316 315 315 314 313 313 314 314 314 314 313 313 315 313 313 313 312 315 316 319 323 321 319 320 318 317 315 314 312 311 314 315 309 309 315 317 320 322 320 321 322 322 324 324 325 326 321 321 321 318 324 326 318 318 321 320 319 317 316 313 312 318 324 327 329 329
300 300 300 300 300 301 302 301 302 305 309 309 310 314 317 315 314 317 318 313 312 316 315 314 315 314 313 314 315 315 314 315 314 313 314 313 314 313 311 315 318 319 321 318 317 317 318 319 317 313 313 312 313 317 312 312 316 315 317 322 321 321 320 319 320 320 322 324 319 318 319 318 325 324 317 320 321 320 320 319 318 316 313 316 322 326 328 328
299 300 300 301 301 300 302 302 301 303 304 305 310 315 313 312 316 319 317 315 315 315 314 314 313 313 315 315 315 315 314 316 315 312 313 313 313 315 313 312 313 319 323 318 314 315 318 319 319 316 314 312 313 315 316 318 317 313 315 317 318 324 324 319 321 322 320 321 319 316 316 320 323 319 317 318 317 320 323 321 322 321 319 322 324 326 327 326
300 301 301 301 301 302 302 301 302 302 301 305 315 317 311 311 315 319 320 322 318 314 313 312 312 314 318 318 317 315 313 315 315 313 314 315 315 319 318 312 312 318 321 318 316 315 313 317 321 316 310 310 312 311 312 317 315 310 311 314 315 322 326 320 317 322 323 321 319 316 316 321 323 317 316 316 318 321 323 321 323 323 323 325 325 325 325 325
300 302 303 304 306 307 304 301 302 301 301 309 316 316 314 313 313 315 319 318 314 313 313 312 312 316 318 320 320 316 314 315 316 314 314 314 315 317 317 314 313 314 317 320 321 317 313 318 321 314 310 311 311 310 310 312 315 312 310 314 316 315 323 324 314 315 321 321 318 316 317 322 323 319 318 321 324 324 323 323 322 323 324 325 325 325 325 325
302 304 305 307 310 311 308 304 302 301 303 311 317 318 318 314 311 315 317 313 312 314 313 312 314 315 316 319 320 319 316 316 317 316 316 316 316 315 316 314 312 311 314 318 320 319 319 321 319 313 311 311 307 308 310 309 312 315 313 314 314 311 318 325 321 319 318 320 320 316 316 322 326 327 321 320 324 324 325 326 322 321 324 324 324 325 325 326
304 306 305 308 311 311 311 306 301 301 306 313 318 320 317 311 309 314 315 312 312 313 312 313 314 314 314 317 320 317 315 320 321 317 317 317 315 316 317 314 311 310 310 311 314 315 316 319 319 314 311 312 310 310 312 309 309 313 313 311 313 316 318 318 320 321 317 318 319 316 315 319 326 331 324 318 324 326 325 328 326 323 322 322 323 324 323 322
307 306 306 310 311 310 310 305 300 303 310 315 317 317 314 313 313 313 313 313 312 312 314 314 313 313 314 316 320 317 316 324 323 314 315 318 315 315 315 314 312 309 308 310 314 316 315 316 318 315 310 310 313 315 318 317 310 308 311 311 315 323 322 317 318 321 320 320 318 316 317 321 326 330 325 321 326 328 326 328 328 323 321 322 323 323 323 322
307 306 307 311 310 307 306 303 302 307 313 315 316 316 314 315 315 313 313 313 312 311 315 314 311 313 314 315 317 316 317 323 320 313 317 319 317 315 313 312 313 310 308 310 314 318 316 312 316 320 315 312 314 314 317 319 313 312 316 316 315 315 314 315 315 315 319 325 323 319 319 324 328 326 323 321 323 326 327 327 324 321 320 323 323 323 324 323
308 308 308 310 309 305 304 306 309 313 315 314 314 316 315 315 315 314 313 313 312 312 312 313 312 313 313 313 314 314 317 321 318 316 318 317 316 316 313 311 311 311 312 312 316 319 316 314 322 325 318 314 312 309 310 312 313 318 318 314 316 317 315 316 314 311 317 323 322 321 323 326 323 318 318 321 321 322 323 322 321 320 321 322 323 324 324 324
310 310 309 309 309 307 308 313 312 312 316 317 315 315 315 314 315 315 312 311 312 311 310 311 312 312 312 312 311 313 316 317 315 316 317 315 315 315 312 310 310 311 315 315 313 314 318 323 324 318 313 311 310 309 309 308 309 315 314 312 317 319 319 326 323 317 317 314 313 319 325 323 316 313 315 317 316 318 319 320 321 321 321 322 323 324 324 324
309 309 307 309 310 309 312 315 313 313 317 316 313 313 313 314 314 313 312 310 310 310 309 309 310 310 309 309 310 312 314 314 313 314 316 316 314 312 310 310 311 313 317 317 312 312 318 323 318 314 316 316 313 313 313 310 311 314 312 312 314 312 316 327 327 322 321 316 315 318 320 320 316 312 313 313 314 318 319 321 321 320 322 322 323 324 324 324
308 307 306 308 311 311 311 311 311 316 319 315 313 313 312 312 312 311 312 310 308 308 310 310 310 309 309 310 312 312 311 312 312 312 314 314 313 311 311 311 313 315 316 314 314 313 313 316 316 315 315 314 313 314 315 314 313 312 310 311 311 312 317 319 316 321 323 316 317 320 321 322 317 311 310 312 316 319 318 319 321 321 321 323 323 324 324 324
307 308 306 306 309 308 308 308 307 312 316 315 313 312 311 311 310 308 309 308 306 306 308 310 309 308 310 312 312 310 309 311 313 313 313 314 312 309 310 311 313 317 317 313 313 315 314 315 320 320 314 312 314 316 319 318 312 310 311 312 311 312 314 312 314 325 322 310 314 325 325 321 316 312 311 311 314 318 317 318 321 320 320 322 323 324 324 324
307 309 307 306 306 305 305 305 304 308 311 311 310 309 310 312 310 307 307 308 306 305 306 306 305 308 314 314 313 312 310 310 312 312 312 314 314 309 307 310 312 315 318 313 309 317 320 314 315 318 314 313 315 315 314 315 313 311 311 312 314 315 317 318 319 322 320 312 314 319 319 317 314 311 310 309 310 314 313 313 317 318 319 320 321 322 323 323
306 306 305 306 306 306 305 304 303 305 307 309 309 307 308 309 309 308 307 307 306 306 306 303 303 308 312 312 315 315 312 311 311 311 310 310 313 311 306 306 307 308 313 311 308 320 327 315 311 314 310 307 310 309 308 310 312 312 311 312 316 319 321 322 316 312 315 319 316 314 316 318 312 307 307 307 308 310 308 307 311 315 317 318 320 321 322 322
305 304 303 304 305 305 306 305 304 304 305 307 308 306 306 307 307 308 308 308 306 305 309 307 303 304 305 308 315 315 312 313 312 310 310 308 310 313 310 308 307 305 309 311 310 320 326 316 311 313 310 307 307 307 309 311 310 311 313 314 317 321 321 319 315 311 314 320 319 314 315 315 308 305 306 306 305 307 306 306 310 313 314 316 318 319 319 320
303 303 302 303 304 303 304 304 304 305 305 306 306 304 305 306 306 305 306 310 309 305 308 308 304 302 302 306 313 311 308 313 311 308 308 309 310 312 311 312 310 305 308 314 313 314 319 316 311 312 313 311 309 309 311 313 312 313 312 310 312 317 316 314 313 309 310 313 312 311 313 309 304 304 305 304 304 305 306 308 310 311 312 314 315 315 316 316
302 302 302 302 301 301 302 303 304 306 305 305 305 304 303 304 306 304 302 306 308 306 306 306 303 302 302 304 308 307 305 308 309 306 306 309 311 310 308 309 308 305 308 314 312 311 314 313 312 315 316 311 309 311 313 314 315 315 312 309 310 312 312 311 310 308 310 309 306 309 313 308 303 303 302 302 303 304 306 307 308 308 310 311 311 311 312 313
302 302 302 302 301 300 301 303 304 306 306 304 304 304 303 303 304 304 302 301 303 303 304 304 303 303 303 304 305 304 303 304 305 304 304 306 307 307 306 306 305 306 309 310 311 315 317 313 311 316 317 310 307 309 311 312 312 312 312 311 312 313 312 311 308 306 309 309 307 312 314 308 304 303 301 300 301 301 302 304 305 307 308 309 309 308 308 309
302 302 301 302 303 300 299 302 304 306 306 304 303 304 303 302 302 305 306 302 300 301 301 302 303 304 305 305 304 302 301 301 303 302 302 303 303 303 305 304 303 305 307 308 310 314 316 312 310 314 314 309 307 308 308 309 311 311 310 308 307 308 308 307 305 303 303 306 310 313 311 305 303 302 300 300 299 299 299 301 303 305 306 306 306 306 307 307
Wind_Speed
12 12 11 11 11 10 9 9 8 8 10 10 12 12 13 13 13 12 11 10 10 10 11 11 12 11 11 11 11 11 12 12 12 13 13 7 3 8 8 8 10 12 12 11 10 8 9 9 9 9 9 10 8 8 7 5 5 3 3 2 2 3 3 4 6 5 3 3 5 8 12 5 4 6 10 10 11 11 9 5 5 6 2 13 12 6 25 29
12 12 12 11 10 10 9 8 8 8 9 10 11 12 13 14 13 13 12 11 11 10 11 12 12 11 11 11 11 11 12 11 12 10 5 3 2 5 5 8 11 13 13 12 10 7 6 8 9 10 10 9 7 7 6 6 7 3 3 2 4 4 4 5 6 5 3 3 6 11 12 5 6 2 8 4 2 3 5 4 4 5 5 12 11 14 28 28
12 12 12 11 10 10 9 8 8 8 9 9 10 11 13 13 13 13 12 11 11 11 11 12 12 11 11 11 11 11 11 12 11 5 2 4 3 2 4 8 10 12 13 12 10 6 4 7 9 10 10 8 5 6 5 5 6 3 3 2 5 5 4 5 7 10 11 7 7 11 11 10 13 7 5 7 4 1 2 3 4 6 11 14 15 23 30 28
12 12 12 11 10 10 9 9 8 8 9 9 10 11 12 13 14 13 12 11 10 11 11 12 12 11 10 10 10 10 10 11 6 4 3 3 4 3 1 7 9 12 14 12 10 7 5 7 8 10 10 5 4 4 3 5 5 2 3 4 5 4 3 7 11 14 16 10 7 9 10 12 14 7 6 12 8 2 6 10 7 8 17 20 21 29 32 28
12 12 13 12 11 11 10 10 9 9 9 9 10 11 11 12 13 13 12 11 11 10 11 11 11 10 10 9 9 8 7 6 3 6 2 1 3 3 1 5 10 11 14 13 11 9 7 9 9 8 7 3 4 3 1 6 5 1 4 6 5 4 2 8 9 9 12 9 8 7 6 9 11 5 7 11 5 3 7 11 10 10 18 21 23 33 32 25
11 12 12 12 12 11 11 11 10 9 9 10 10 10 11 12 12 12 12 12 12 11 11 11 10 10 9 9 8 6 4 0 5 3 1 1 1 1 1 4 10 12 13 12 12 10 9 11 9 7 5 2 3 3 3 6 5 2 4 5 7 7 5 9 9 7 10 9 9 7 5 9 9 6 3 6 5 5 6 11 12 12 17 20 24 34 32 25
12 11 11 11 12 12 12 12 12 10 10 10 10 10 10 11 12 12 11 11 12 12 12 12 11 9 9 9 7 6 6 6 4 1 2 2 2 3 2 5 10 13 13 13 13 11 11 12 9 7 5 2 3 4 3 4 6 5 3 3 8 9 8 13 14 12 13 12 15 13 9 10 9 5 2 5 7 8 8 10 13 16 19 23 29 34 32 29
13 11 11 11 11 11 12 13 12 11 11 10 10 10 10 11 11 12 12 12 11 12 12 12 11 9 9 8 7 6 9 7 3 1 1 2 3 5 5 7 10 13 13 14 14 12 11 12 10 7 4 1 4 4 2 1 2 4 5 4 5 8 11 15 16 17 17 16 19 14 9 15 16 7 2 5 6 5 5 8 14 19 21 25 31 33 32 32
15 13 11 10 11 11 11 12 13 12 12 11 11 10 10 10 10 11 11 11 11 11 12 12 12 10 9 8 6 6 6 4 3 2 1 2 4 6 8 8 10 13 13 13 13 12 11 12 10 7 2 1 3 3 3 2 2 6 8 6 4 8 14 15 14 16 15 14 13 6 8 17 16 6 3 5 4 3 5 9 15 21 23 26 30 31 32 32
18 15 12 11 10 11 11 11 12 13 12 12 11 11 11 11 11 11 11 11 11 12 12 11 12 10 9 7 3 2 2 3 3 2 1 2 5 6 9 9 9 12 13 13 14 14 12 11 8 5 1 1 2 2 3 4 2 6 8 7 8 11 14 11 10 15 11 10 10 8 8 10 4 4 4 5 5 6 8 13 17 22 25 27 27 28 30 31
19 17 15 12 10 10 11 11 11 12 12 12 12 11 11 12 11 11 11 12 12 12 13 12 12 11 10 8 4 3 2 4 4 2 1 4 5 5 7 8 9 10 12 14 15 16 12 9 7 3 1 1 1 2 4 4 4 5 4 4 9 8 10 9 9 14 8 5 11 13 7 2 3 3 5 7 9 10 13 18 19 22 25 26 26 27 29 31
19 19 17 14 11 11 10 11 11 11 12 12 12 12 12 12 12 12 12 12 12 13 13 12 11 11 12 12 11 7 3 5 5 3 2 4 6 3 4 6 7 7 10 14 17 16 12 9 6 1 1 1 2 1 2 3 4 4 1 2 7 7 7 8 5 7 5 3 9 11 3 4 1 4 5 10 14 13 17 21 21 23 24 25 27 27 30 31
18 19 19 17 13 11 11 11 11 11 11 11 12 12 13 13 13 14 13 13 13 13 13 12 12 13 12 12 11 5 6 8 7 5 4 4 6 4 5 6 6 5 7 12 15 13 11 9 6 3 4 3 2 1 2 5 3 3 1 1 4 7 6 6 1 2 5 3 7 10 2 6 7 8 6 14 19 19 20 21 21 23 24 26 28 29 31 31
17 17 18 18 16 13 11 11 11 10 10 11 12 12 13 13 14 14 14 14 14 14 13 12 12 12 11 12 9 5 9 11 9 6 4 5 5 4 6 8 8 7 8 11 11 9 9 8 6 7 8 7 5 3 3 5 2 1 1 2 2 1 4 7 3 3 3 5 9 11 3 6 7 9 10 19 23 23 22 20 21 24 25 27 29 30 31 31
17 17 17 18 17 15 12 11 11 10 10 11 11 12 13 13 14 14 15 16 15 14 13 12 12 11 13 16 10 5 10 12 9 4 4 6 4 4 7 9 9 9 10 10 8 7 7 5 5 6 6 6 4 2 3 4 3 2 1 2 3 1 4 10 5 5 5 4 5 9 3 5 7 9 15 22 23 22 22 21 22 24 27 28 29 29 30 30
17 17 17 17 17 16 14 12 11 10 10 10 10 11 11 12 13 14 15 16 16 14 12 10 9 8 10 10 4 3 6 10 9 5 6 5 4 6 8 8 9 9 9 7 6 6 5 5 5 5 3 1 2 3 3 4 4 4 2 2 2 1 2 6 4 5 7 1 1 5 3 2 6 8 15 21 21 19 21 21 20 23 26 28 28 27 30 31
18 17 17 17 16 16 15 13 11 10 9 9 9 9 10 11 12 14 15 16 15 12 10 9 8 9 9 6 2 1 1 3 7 7 6 5 6 7 6 6 6 7 6 4 5 6 5 4 3 3 1 2 3 4 3 3 3 4 2 0 2 2 1 3 5 5 2 2 2 3 4 5 6 4 12 18 19 17 18 20 20 21 25 26 27 28 30 31
18 18 17 17 16 16 15 14 12 10 9 9 9 10 11 12 13 14 14 13 9 5 6 8 4 5 7 7 5 2 3 6 5 6 7 7 9 8 5 4 4 3 3 2 4 5 5 3 1 1 2 4 3 5 3 3 3 2 0 1 2 3 2 3 5 4 3 1 4 4 4 8 7 2 11 16 18 16 15 19 19 19 21 24 26 28 30 30
19 18 17 17 17 16 15 15 13 11 9 9 9 11 11 11 11 11 9 7 4 2 4 6 5 3 7 10 9 7 7 9 6 5 9 9 10 11 7 4 3 3 2 2 2 4 4 2 2 2 0 1 2 5 6 7 6 5 4 3 2 3 4 5 6 5 1 1 5 6 5 7 5 3 9 14 18 16 14 17 19 18 19 23 25 27 29 31
19 19 18 17 17 17 16 15 14 11 9 9 10 10 9 8 6 5 7 10 13 12 14 15 15 16 18 17 14 11 11 10 6 5 9 10 11 11 9 5 2 1 2 3 3 1 3 3 1 4 5 6 7 6 6 5 5 4 3 2 3 3 4 6 6 6 2 4 4 5 6 6 6 5 7 12 15 13 14 15 17 18 18 23 27 26 29 31
20 19 18 17 17 17 17 15 14 12 10 9 9 9 6 5 4 5 9 15 19 19 20 21 19 22 23 19 16 15 12 8 4 6 8 11 13 9 7 5 2 1 2 2 2 2 3 3 5 8 8 8 6 5 5 4 3 3 2 1 3 3 5 7 5 6 2 3 2 2 6 4 5 5 5 11 12 11 14 16 17 19 20 24 28 28 29 29
20 20 19 18 17 17 17 16 15 13 11 9 9 8 5 5 5 8 9 12 20 22 19 19 21 24 24 21 21 19 11 6 4 6 8 13 14 9 6 5 4 2 2 2 2 4 3 2 9 9 6 5 4 4 5 3 3 3 2 2 2 3 4 7 5 5 4 2 1 3 6 3 6 3 4 6 7 7 12 15 16 20 20 23 28 28 28 28
21 20 20 19 17 16 17 16 15 14 12 9 8 5 5 6 7 10 9 8 17 21 17 17 20 24 23 20 19 16 10 6 6 7 10 14 15 11 8 5 4 3 2 3 5 1 0 5 8 5 7 6 2 3 7 4 2 3 3 3 3 4 0 3 4 5 5 2 3 5 6 3 5 1 2 4 3 2 7 13 14 19 21 21 25 26 27 28
21 21 20 19 18 16 16 17 15 13 10 8 6 4 5 8 8 11 8 6 9 12 12 13 14 18 21 15 11 14 14 9 7 8 12 15 14 10 8 5 5 3 2 5 7 5 5 6 2 7 7 7 4 3 6 5 1 2 4 5 3 4 4 4 4 5 4 4 4 5 5 4 4 1 3 3 1 1 6 12 14 18 21 19 20 23 26 28
21 21 20 19 18 16 16 16 12 9 8 6 3 4 6 8 9 10 5 2 5 6 6 6 7 10 13 9 8 12 11 10 11 10 13 18 17 9 5 6 5 3 5 5 6 3 7 7 5 6 4 5 6 4 5 7 2 4 4 8 7 5 4 3 3 5 4 4 3 5 5 3 5 3 4 3 3 2 3 8 12 15 19 18 19 21 24 26
21 21 21 20 19 17 15 13 9 9 10 6 3 5 6 7 8 8 3 2 3 5 2 2 4 4 7 10 12 10 4 7 14 13 13 18 20 12 4 4 2 3 6 5 4 2 4 3 4 5 4 5 4 4 5 7 5 1 5 8 8 5 4 1 2 4 2 1 2 4 5 1 5 4 4 4 3 4 2 3 8 13 17 18 20 21 24 26
21 21 21 20 19 17 15 11 10 12 10 4 4 6 6 6 6 5 3 4 3 3 1 2 2 3 5 9 16 13 2 4 10 14 17 16 19 16 6 2 1 2 4 4 1 2 3 2 3 4 5 5 3 4 5 8 8 2 5 6 7 6 5 4 4 4 2 2 3 5 5 4 1 4 5 4 2 4 5 5 6 11 16 18 19 20 23 27
20 21 21 20 19 18 17 14 13 11 6 4 6 6 6 5 5 2 3 3 2 2 1 3 2 3 3 7 19 14 2 5 6 10 19 17 16 13 6 6 6 5 4 5 3 5 2 4 2 4 5 2 4 5 7 10 6 5 5 7 6 5 5 4 5 3 1 1 2 6 4 4 2 5 5 4 1 4 7 7 6 10 16 18 20 20 21 24
19 20 20 20 19 17 17 16 13 7 3 5 5 5 5 4 2 2 4 1 3 1 1 2 2 3 4 8 16 13 2 2 2 5 14 17 17 10 4 7 7 5 1 4 5 6 2 5 5 5 4 4 6 5 9 10 4 4 6 6 4 5 5 4 5 3 3 3 3 6 3 2 3 5 4 4 1 4 7 6 6 10 16 19 20 21 21 22
19 18 19 20 19 17 17 16 12 7 5 5 5 5 3 3 1 5 1 2 2 1 0 2 1 2 5 6 6 10 5 1 2 7 9 11 14 8 3 5 5 5 0 3 2 5 3 2 3 3 3 5 4 2 4 5 3 6 6 6 6 6 5 4 4 4 4 2 5 6 2 4 1 4 2 1 2 4 6 7 7 9 16 20 21 22 22 21
19 18 18 20 19 18 17 15 8 4 8 6 5 5 3 2 3 4 3 3 2 2 2 1 2 2 4 4 3 4 2 2 2 6 5 3 7 4 3 4 3 4 3 5 2 5 6 2 2 3 4 4 5 4 2 2 3 5 5 5 4 4 5 4 4 4 4 2 6 5 2 4 3 3 3 4 6 6 5 7 8 6 12 19 21 22 22 21
20 19 18 19 20 19 17 14 7 5 9 5 5 6 4 2 1 2 4 3 2 2 2 1 2 2 1 2 2 3 1 2 2 4 4 3 4 4 3 4 4 3 3 3 2 4 4 3 4 4 3 5 5 4 3 5 4 5 5 5 4 2 3 2 2 1 2 4 4 3 3 1 3 5 4 5 7 7 6 9 11 10 14 16 18 21 21 19
20 20 19 18 20 20 16 12 10 9 9 5 4 3 5 3 3 5 4 2 1 1 1 1 3 3 2 1 1 4 2 3 5 3 3 3 4 4 1 2 6 5 1 3 1 2 3 5 5 3 3 4 6 5 2 1 1 4 5 4 4 3 3 0 2 1 2 4 3 4 3 1 3 3 2 4 6 7 8 9 9 9 11 10 11 14 15 14
21 20 20 18 18 18 13 10 11 11 11 8 3 3 5 3 4 4 3 4 3 3 2 1 4 4 1 0 2 3 2 3 4 5 2 3 3 3 2 1 3 5 3 3 2 3 2 3 3 3 1 1 4 5 6 5 3 3 4 5 5 4 4 3 3 2 3 2 2 4 1 2 2 2 4 5 6 6 6 5 4 6 6 10 14 14 14 12
23 20 19 16 12 11 10 10 12 12 13 11 4 4 4 5 4 2 3 4 2 3 3 3 2 2 3 2 3 0 1 2 2 5 2 3 4 4 4 4 4 4 4 3 2 2 3 4 6 4 1 2 3 2 5 6 3 1 2 5 3 5 5 3 3 4 4 2 1 1 2 2 2 3 6 5 6 7 9 8 12 18 18 20 20 18 17 15
23 20 14 8 5 5 7 12 14 15 17 12 5 2 5 4 3 3 3 1 0 1 3 5 3 2 3 3 2 3 2 1 1 3 1 2 3 4 3 4 5 6 6 5 3 1 3 4 6 4 2 2 3 3 4 4 3 1 2 3 4 4 7 6 2 1 3 4 1 1 2 3 2 2 5 6 6 6 8 7 8 15 20 23 23 21 18 15
23 19 9 5 7 7 8 13 15 19 20 12 4 4 5 3 5 5 1 0 0 1 4 2 2 0 2 1 1 2 2 2 1 1 1 2 2 3 3 1 4 8 7 5 2 3 4 2 6 1 2 2 1 4 4 2 5 5 3 5 3 2 5 5 3 3 4 3 2 2 1 3 1 1 4 5 3 3 4 4 4 7 13 18 18 18 15 12
21 15 7 9 14 10 8 12 18 23 19 9 3 4 3 3 5 4 0 2 0 2 4 2 3 1 1 1 3 2 2 1 2 1 1 2 1 2 1 0 3 5 6 7 3 2 4 0 7 2 1 3 5 7 4 5 4 4 4 4 3 3 2 2 3 2 2 2 2 2 1 2 3 2 3 1 3 4 3 3 4 5 8 12 11 14 15 13
18 9 7 17 18 8 8 14 23 24 14 5 4 4 2 4 5 4 3 2 0 2 1 3 2 1 1 2 3 1 3 2 1 2 1 0 1 1 0 1 2 1 2 9 6 1 3 2 4 3 0 2 5 4 2 3 5 4 3 3 2 3 4 2 3 3 4 4 2 1 2 2 4 4 4 5 7 6 4 3 2 4 8 12 12 13 14 13
14 5 7 21 17 2 12 19 23 17 7 3 5 3 2 3 4 6 5 2 1 1 1 3 2 1 2 2 3 2 2 3 3 1 0 1 1 2 2 1 2 1 1 6 4 1 3 3 3 4 3 2 2 0 3 4 2 3 3 2 2 2 3 2 2 2 4 5 3 2 1 4 5 3 4 5 7 6 5 2 2 2 9 14 14 15 15 15
12 3 8 21 12 8 17 17 12 6 3 2 2 2 2 2 1 3 5 4 4 4 4 4 3 3 3 1 3 2 1 2 3 3 2 2 1 1 2 2 4 2 3 5 3 1 2 3 3 2 4 2 1 3 2 4 5 5 3 2 3 3 4 4 2 1 2 4 4 4 2 5 5 3 4 6 6 5 5 3 1 2 9 13 14 15 15 14
10 3 10 19 3 13 13 7 1 1 3 2 2 2 2 2 1 2 4 4 4 5 4 3 3 4 4 2 4 3 2 2 2 3 3 2 1 2 3 4 1 3 4 4 1 2 3 4 3 1 1 1 4 4 3 1 4 7 4 3 4 3 4 5 3 3 2 2 2 4 2 4 5 3 5 5 4 4 5 5 3 4 8 12 14 16 15 15
9 5 12 14 5 10 6 1 2 2 1 1 1 3 3 2 2 2 1 1 1 2 1 1 2 2 2 2 1 1 1 2 1 1 3 2 1 2 6 8 4 3 5 2 1 0 1 4 4 1 3 4 4 4 4 4 5 6 4 3 3 2 2 5 5 3 4 3 2 3 1 4 5 5 5 4 2 7 8 5 6 7 8 11 15 16 16 15
7 8 17 13 6 5 6 1 1 3 3 4 3 2 3 2 1 1 1 2 3 1 1 1 1 1 1 1 2 2 1 1 2 2 1 2 0 5 10 10 5 2 3 1 3 2 0 1 4 3 2 4 3 3 5 5 4 3 2 2 2 3 4 3 2 3 2 4 4 5 3 5 4 5 7 9 7 8 8 6 6 5 8 12 14 15 14 13
5 5 14 17 11 10 10 4 2 2 2 4 4 4 4 2 3 4 4 3 4 2 1 2 2 1 2 3 3 3 4 2 2 2 3 2 2 5 12 13 8 5 3 3 5 5 3 2 3 5 4 4 3 3 3 1 2 1 1 3 3 4 4 2 2 4 2 3 3 4 5 4 4 6 9 10 8 7 8 7 5 4 6 9 11 12 12 10
5 3 6 11 17 20 17 12 9 2 1 3 2 4 4 2 3 7 7 5 4 4 3 3 3 2 4 5 3 3 6 4 2 4 3 3 2 3 7 11 13 9 5 6 7 5 4 3 2 4 4 4 5 4 3 2 3 1 1 3 4 2 2 3 4 2 4 4 1 3 4 2 3 7 9 10 8 7 7 8 8 7 5 5 7 9 8 8
5 3 3 4 8 12 13 17 16 6 3 4 1 3 5 2 3 6 7 5 4 4 4 5 7 4 3 4 3 3 5 4 5 4 3 4 3 3 5 8 12 13 5 3 6 4 5 4 3 5 5 1 1 0 2 4 4 2 2 2 4 4 5 6 4 1 3 6 1 5 2 5 3 7 7 8 8 5 6 10 11 10 8 6 4 5 6 6
6 3 4 3 3 4 6 10 12 9 9 7 2 2 6 5 4 4 4 3 5 6 4 5 9 7 3 1 3 3 5 4 5 4 3 4 3 4 6 4 8 15 9 3 5 4 6 2 2 4 6 6 5 6 7 6 4 4 4 4 4 6 7 6 3 1 2 5 4 2 5 5 3 5 6 7 6 5 7 10 12 12 11 8 6 5 5 5
7 5 7 8 5 3 4 5 9 10 12 8 4 4 7 8 6 5 4 2 4 8 5 4 6 8 6 4 5 4 4 3 4 4 2 3 4 3 5 3 6 14 11 4 4 3 4 2 2 5 5 6 6 6 7 7 5 5 6 6 5 8 8 6 3 2 3 4 5 7 11 6 3 4 5 6 6 8 13 17 17 16 14 12 10 9 8 6
8 6 6 7 8 7 7 6 5 7 9 8 6 6 8 8 7 6 7 7 4 6 6 6 3 6 7 8 7 5 2 2 3 2 1 1 3 3 3 1 4 9 9 4 3 3 3 2 3 5 5 4 6 4 5 5 4 4 5 5 5 8 8 6 4 3 5 5 4 8 11 6 3 3 5 8 12 17 20 21 20 19 17 17 17 15 13 10
9 8 5 4 4 8 8 5 3 3 5 7 6 6 7 8 7 4 7 11 9 5 5 3 2 4 6 9 9 5 2 2 3 3 2 1 2 3 2 1 2 5 7 4 2 3 3 3 2 4 4 2 3 2 4 5 6 4 3 4 5 5 5 3 2 2 2 4 5 6 7 3 0 3 6 12 18 21 20 19 21 22 22 23 23 21 19 16
10 8 6 3 3 7 6 3 3 2 2 3 4 5 6 8 10 5 4 10 14 12 9 5 1 2 5 7 7 7 10 9 8 9 7 4 4 4 4 5 3 2 3 3 2 2 2 4 4 3 4 2 0 3 5 5 5 2 2 2 3 3 5 4 3 4 3 2 5 4 4 4 1 2 6 10 15 17 17 18 20 21 23 25 24 22 20 18
Wind_Direction
310 311 313 318 323 328 330 330 336 341 346 348 349 350 347 343 338 331 321 315 320 326 328 324 320 318 316 314 313 314 312 307 300 293 294 305 256 245 246 221 205 196 194 192 188 190 192 197 200 194 188 174 173 181 179 188 169 138 97 116 217 186 175 186 189 192 176 270 290 327 351 9 359 51 104 103 110 110 131 127 142 191 284 191 196 170 168 171
307 305 306 309 314 323 327 323 327 334 339 344 347 348 347 345 342 339 331 324 323 326 327 323 323 320 317 315 315 319 317 311 303 292 299 3 281 251 234 215 204 191 190 190 185 189 189 190 193 186 174 164 165 171 177 192 182 154 104 155 222 189 203 203 201 230 222 262 296 311 329 337 319 301 153 131 84 108 105 80 102 137 141 179 189 165 169 174
307 302 300 301 305 314 319 317 317 323 330 335 342 346 347 346 344 343 338 333 329 327 324 320 321 320 317 314 318 324 322 314 303 289 95 58 16 305 211 205 201 188 187 192 191 192 190 180 179 173 164 156 151 162 166 181 190 192 125 200 243 202 218 239 241 263 270 286 307 305 318 321 316 314 172 155 146 163 166 163 131 139 158 170 173 169 173 177
310 304 298 296 298 303 309 312 309 312 319 327 336 341 346 347 346 346 346 343 335 327 320 317 318 318 316 314 323 328 329 324 296 173 131 68 43 14 192 190 194 187 188 197 197 191 181 166 164 162 160 145 128 156 172 177 187 192 159 203 230 171 186 243 243 263 280 292 289 286 312 318 320 335 155 142 127 276 233 201 188 187 178 171 171 173 177 179
314 308 302 297 292 294 299 301 303 304 308 319 329 334 342 346 346 348 351 350 342 332 322 319 317 317 319 319 326 327 340 353 152 148 141 88 51 18 42 182 190 190 193 198 198 190 175 166 162 155 152 127 114 128 195 188 176 166 219 229 229 176 200 262 252 268 289 295 282 284 310 305 318 339 163 152 144 228 234 219 217 211 191 183 179 176 178 177
320 312 307 301 293 289 291 293 296 297 301 311 320 327 336 339 343 348 349 351 347 340 332 326 323 322 323 321 323 321 329 18 158 152 240 187 6 331 5 191 190 198 202 203 199 187 177 168 162 151 132 92 128 156 203 195 182 216 265 259 256 237 234 272 273 279 287 287 277 271 286 295 314 331 214 194 229 248 254 236 226 216 197 191 181 176 175 170
332 321 312 307 298 290 287 288 289 290 295 302 310 318 327 332 339 344 345 348 347 345 339 333 330 326 324 320 319 310 286 252 195 207 238 184 255 250 240 213 199 206 207 208 201 184 177 171 164 141 107 92 162 195 216 194 182 198 270 286 270 255 243 270 279 281 278 273 273 273 285 288 281 299 286 225 250 266 259 234 217 200 185 179 174 171 171 172
344 332 321 313 304 297 289 286 286 287 290 293 300 308 317 324 332 339 343 345 344 343 340 338 336 328 324 319 318 310 285 262 208 195 213 195 243 247 240 222 206 209 208 210 201 181 175 172 167 144 111 166 171 195 203 147 180 193 236 257 269 262 261 277 285 284 280 273 275 277 270 269 266 258 226 239 261 274 243 212 193 176 166 167 169 169 171 177
353 341 331 320 311 306 296 289 285 284 287 288 293 299 307 316 323 332 338 340 341 339 337 338 336 329 323 315 317 315 283 235 182 207 219 229 253 253 245 232 215 210 205 205 193 176 174 174 174 161 162 197 162 212 181 143 245 207 217 239 266 275 279 285 288 285 283 276 270 257 254 268 271 248 224 256 242 224 197 177 170 161 156 161 167 170 173 177
360 350 339 327 318 313 307 299 289 284 285 286 289 294 300 306 315 325 331 335 337 335 333 332 334 330 320 311 320 319 245 180 173 202 206 270 277 257 243 236 228 215 201 198 184 171 171 174 175 164 163 139 158 231 175 160 216 212 216 238 252 267 285 284 280 279 280 278 248 204 239 270 268 193 223 245 206 195 174 155 155 155 155 160 166 171 173 179
2 358 348 334 324 318 315 308 299 290 284 284 287 290 295 299 306 317 324 328 330 333 329 325 326 322 315 302 254 213 204 179 180 187 216 281 294 266 245 238 231 218 201 193 179 169 164 162 163 147 140 26 334 223 199 212 240 240 225 257 269 287 296 269 258 268 264 271 236 205 225 303 88 169 215 208 188 186 166 147 148 152 154 160 166 172 178 185
0 360 355 344 331 322 319 315 310 301 290 285 284 285 290 292 298 308 317 322 323 327 323 320 317 314 315 293 261 243 219 192 193 221 242 271 288 248 218 234 230 220 203 187 174 166 157 161 172 133 343 324 328 226 232 273 259 260 223 266 296 355 328 263 249 251 200 232 229 191 228 319 236 226 211 183 175 169 156 145 147 152 155 164 170 176 185 192
356 357 357 352 340 327 322 320 315 310 300 289 283 283 284 288 294 301 310 315 316 318 316 315 307 308 311 289 276 257 205 200 208 240 247 254 277 236 182 195 205 206 199 182 173 167 166 185 211 284 304 275 263 250 305 313 281 270 66 140 312 5 333 277 318 163 165 239 203 159 240 280 259 261 209 174 171 159 148 145 149 154 160 169 175 182 189 194
351 352 354 355 349 335 324 323 322 317 310 299 289 284 283 287 291 296 305 308 309 311 309 307 301 306 301 285 295 265 211 211 222 240 241 240 256 220 172 165 165 171 176 173 174 182 191 209 244 278 281 256 251 283 321 334 355 300 350 53 4 16 286 290 317 127 159 254 189 157 237 255 266 271 194 176 176 161 149 151 155 160 167 174 179 186 192 194
345 346 349 351 352 345 331 324 325 322 314 307 298 292 289 288 290 295 299 300 303 304 303 302 297 305 302 292 294 251 218 223 229 231 223 234 228 177 150 143 142 148 156 163 178 195 204 226 256 269 274 253 252 330 355 349 8 33 63 319 344 133 268 301 299 176 192 272 181 162 237 257 266 250 188 177 177 161 153 157 160 163 169 176 182 187 193 195
340 342 343 345 349 349 340 327 322 322 317 313 309 303 296 292 290 291 292 295 299 297 296 294 294 309 307 300 303 223 230 237 241 240 220 217 195 160 134 130 130 137 151 164 190 209 226 251 264 268 276 216 127 83 46 8 349 2 91 219 284 160 279 316 319 218 205 262 169 172 180 246 271 237 188 178 174 161 156 161 161 165 171 178 182 187 195 197
336 337 337 339 342 346 346 336 323 319 320 319 314 309 304 300 296 293 293 294 293 289 286 280 291 305 280 265 295 229 8 294 261 243 221 196 186 169 138 140 133 141 171 198 235 241 243 244 241 253 334 64 81 86 64 7 313 320 26 114 249 228 276 311 311 295 179 127 236 183 162 228 280 235 179 176 175 164 160 165 164 166 172 177 181 189 198 199
333 334 334 335 335 339 344 342 332 319 320 323 317 316 315 312 309 302 296 293 288 287 285 266 270 314 272 247 259 253 25 351 301 236 214 192 185 179 161 165 151 159 190 206 233 220 213 223 147 124 23 20 41 89 124 219 207 202 163 32 294 288 296 262 276 302 44 40 221 174 187 243 287 243 174 176 177 170 164 169 169 168 172 176 181 192 200 204
330 331 332 331 331 333 335 341 339 324 319 318 316 321 322 323 322 310 301 283 238 228 287 255 217 258 278 270 269 276 308 315 310 245 211 192 184 188 187 195 203 194 148 127 198 179 167 157 74 101 353 286 199 145 177 202 162 148 167 166 207 263 279 253 258 265 142 139 212 191 195 229 251 205 179 179 179 173 164 168 172 170 171 175 183 193 202 207
327 328 329 329 329 329 329 333 337 331 318 308 316 325 328 341 342 317 305 278 262 273 283 271 255 256 268 277 277 282 298 302 295 239 204 189 185 189 193 204 213 144 112 141 188 179 125 124 176 204 207 218 216 184 167 164 127 110 123 165 212 222 269 267 268 278 181 142 223 197 176 216 221 202 187 176 175 172 163 166 175 172 168 176 186 197 204 209
325 324 325 326 326 327 325 325 329 331 316 302 312 321 328 2 358 317 309 291 283 285 280 276 269 262 265 271 271 279 298 308 267 206 198 195 186 183 195 192 119 69 269 162 144 9 80 125 231 221 207 204 203 174 144 132 100 78 127 217 261 219 247 262 264 300 286 153 288 124 143 242 256 217 197 171 172 182 175 171 177 174 168 179 192 200 206 212
324 322 322 323 323 324 322 321 323 324 316 299 302 316 336 359 338 314 308 292 292 292 281 274 264 259 262 261 260 269 282 288 252 209 200 197 191 190 183 154 127 178 286 84 83 358 36 242 246 226 184 154 145 134 130 131 109 87 126 161 268 242 270 288 281 314 335 118 355 99 123 299 294 238 222 193 189 198 185 179 180 177 173 183 195 202 207 213
322 321 320 319 320 322 319 318 318 319 313 293 294 320 337 328 327 319 296 270 293 295 282 267 254 252 255 253 253 251 238 240 247 223 204 194 193 194 171 139 142 151 72 121 152 128 94 255 250 198 146 137 142 129 114 100 107 129 140 142 252 258 282 298 289 322 348 65 122 119 105 349 329 330 269 252 220 193 184 186 186 185 186 192 198 203 208 212
322 321 319 317 316 317 317 315 315 319 311 294 298 311 313 316 330 327 294 252 288 295 280 268 253 249 248 245 242 224 213 221 227 209 203 195 184 185 187 157 129 142 192 177 157 162 219 239 185 124 139 157 167 160 132 133 251 255 187 167 222 255 209 216 288 335 346 23 77 86 56 354 353 353 251 269 269 152 170 178 183 190 197 204 204 205 209 213
321 320 319 317 314 313 315 313 312 317 312 311 303 272 297 316 327 330 315 277 293 286 285 265 243 245 233 215 205 201 200 219 225 204 199 202 188 173 190 171 143 189 204 159 132 175 245 240 169 137 161 175 171 194 179 163 187 306 238 197 202 215 207 232 332 16 34 9 10 62 61 323 324 307 241 278 299 256 168 172 179 185 196 207 209 207 209 214
320 318 318 317 313 311 312 310 306 309 313 315 279 267 299 313 322 332 343 26 318 274 289 214 225 221 193 192 186 171 157 224 225 212 200 207 200 183 163 164 160 198 180 149 130 197 250 231 159 149 153 155 165 233 222 163 127 318 247 200 183 161 143 150 27 53 87 280 322 67 108 222 321 318 276 312 297 274 291 217 195 190 196 205 210 210 209 213
319 316 316 315 314 312 308 303 297 303 311 304 267 275 288 292 311 327 354 21 330 273 213 175 211 169 186 195 170 151 101 200 199 207 204 202 198 190 187 195 166 188 173 129 115 231 197 145 84 104 112 118 149 242 227 149 123 230 230 161 146 148 156 150 93 83 182 216 331 15 92 119 335 279 292 342 338 293 290 258 229 207 203 205 210 215 214 213
317 314 312 311 312 311 306 299 293 298 297 264 269 275 267 274 299 323 63 34 305 288 130 199 191 153 187 184 172 166 137 150 153 205 206 199 192 186 198 213 180 182 178 123 176 258 191 168 180 122 100 125 192 219 192 151 140 236 200 136 137 145 143 123 96 91 20 102 307 326 32 98 250 275 318 13 59 286 272 250 243 222 214 211 210 216 219 218
316 312 308 306 306 305 301 294 289 293 252 239 263 261 247 246 300 52 84 34 274 303 29 185 161 169 157 156 187 204 215 123 104 181 189 191 193 185 192 213 173 151 175 117 180 251 241 196 198 139 130 216 219 211 179 162 167 194 142 97 70 74 77 76 90 105 45 62 229 285 354 102 258 289 338 24 28 278 273 263 251 229 222 218 212 213 218 221
314 309 304 301 300 299 296 288 286 276 229 228 249 244 225 208 80 60 91 258 265 280 48 163 206 187 140 128 207 236 242 273 85 134 156 177 191 187 140 176 144 123 303 21 174 245 285 239 199 156 184 202 174 148 170 161 135 132 107 64 46 32 32 48 53 83 69 6 250 265 312 121 209 286 269 352 299 264 272 284 276 239 224 220 214 213 215 217
314 306 300 297 295 293 289 286 294 250 204 205 231 217 166 147 77 88 203 256 283 292 14 9 303 46 129 148 221 252 254 289 95 129 144 152 173 171 110 146 113 75 7 347 313 296 334 341 247 249 222 170 113 78 59 40 78 108 84 72 76 8 9 30 359 47 89 268 259 273 284 134 157 255 241 263 280 273 256 263 276 261 236 225 211 210 213 212
315 304 296 291 287 285 280 282 287 208 187 192 227 211 157 109 77 172 235 312 338 279 5 292 300 359 279 198 203 226 193 224 221 140 151 145 153 175 169 176 163 65 351 278 287 335 324 260 273 307 247 171 121 78 38 7 28 82 88 90 93 22 14 34 318 16 141 238 263 312 315 166 207 228 216 248 276 283 266 261 267 265 261 246 216 205 208 206
317 305 297 288 281 280 278 278 265 220 202 215 225 184 103 98 216 220 241 293 266 290 1 258 306 315 260 72 216 218 170 204 220 178 150 130 153 202 240 172 155 122 149 212 186 347 305 301 317 330 275 195 145 128 151 263 75 128 136 126 118 100 83 178 268 318 237 244 293 324 320 253 264 268 241 260 282 295 300 295 277 260 259 244 199 183 182 187
320 311 302 291 283 280 276 265 248 226 216 214 188 104 103 147 230 226 231 248 257 320 353 287 309 314 302 352 255 207 171 246 198 156 142 108 144 219 263 248 162 119 113 144 154 175 188 308 279 205 246 215 159 156 163 158 143 166 156 129 140 152 139 190 214 178 207 240 318 316 308 160 200 284 294 293 310 338 360 13 73 97 121 137 138 141 143 151
324 319 309 301 292 282 268 243 229 217 206 192 135 90 151 200 238 213 217 240 273 322 315 317 346 348 337 312 293 144 154 251 146 124 142 141 167 201 190 207 196 128 119 155 212 170 150 241 258 257 259 155 167 180 139 115 95 242 134 109 150 178 140 134 173 168 170 140 31 279 231 198 209 284 308 325 339 14 44 59 87 96 106 113 112 110 109 112
328 326 320 319 320 289 247 222 211 203 191 171 123 151 197 212 211 187 202 209 128 332 330 344 37 59 318 308 338 3 63 126 80 95 148 183 194 204 191 210 193 160 148 159 202 163 131 253 281 323 344 158 173 179 142 136 159 162 127 161 213 169 118 110 135 33 84 124 191 249 255 299 344 311 321 358 358 14 42 43 76 102 113 112 108 107 104 104
333 334 335 343 336 306 242 212 198 192 183 160 141 207 210 218 198 193 222 59 193 64 68 17 334 208 273 296 310 317 23 22 1 84 209 236 224 205 210 237 177 185 184 160 201 200 144 258 293 1 62 342 48 101 76 67 125 127 175 197 189 101 94 104 110 19 52 143 250 334 279 290 39 172 309 356 357 349 17 5 21 82 107 110 114 123 125 126
336 338 346 343 329 303 241 207 190 182 174 155 178 215 208 218 198 185 50 33 347 47 82 153 248 253 230 234 262 273 79 39 321 15 176 244 253 192 195 221 169 204 201 159 174 251 124 239 293 282 151 319 9 75 60 355 46 116 167 158 115 121 132 95 121 127 116 164 266 338 324 248 193 212 271 244 225 250 304 343 14 42 78 94 110 131 140 142
339 344 358 349 334 294 211 188 180 173 162 153 199 211 209 223 236 248 286 328 126 97 97 214 231 317 301 206 226 238 96 137 285 8 96 194 236 196 73 200 173 313 208 161 165 264 105 134 275 281 222 330 7 64 151 309 12 49 79 56 38 129 152 154 141 147 145 155 205 315 358 267 226 210 203 215 233 236 255 309 10 74 95 108 120 135 147 151
348 2 4 352 341 251 164 164 168 165 156 172 190 203 226 224 264 268 257 265 197 149 224 216 186 269 272 267 226 221 93 142 143 84 251 216 198 228 282 226 157 16 73 134 136 58 83 128 221 288 336 37 39 18 189 188 128 72 58 36 20 68 121 141 91 92 126 139 171 165 232 266 254 217 211 237 246 224 208 252 312 103 112 120 130 137 148 151
2 41 2 351 350 137 138 148 161 158 138 145 172 213 252 222 280 277 251 243 227 235 232 201 188 214 213 289 264 223 111 168 155 138 197 244 171 202 271 224 170 169 94 84 83 122 120 143 176 295 4 61 236 290 268 214 168 139 133 147 143 123 123 123 107 295 105 120 164 159 189 262 269 251 256 268 254 219 178 152 326 84 116 121 128 134 138 139
18 68 358 350 11 141 129 141 194 40 127 137 192 205 234 226 224 266 263 257 225 230 235 205 223 228 197 213 244 208 135 188 189 147 173 211 169 188 286 288 198 130 110 106 162 195 140 113 103 59 13 220 262 302 330 309 112 108 102 119 132 119 110 125 172 215 110 90 155 123 129 254 271 284 287 283 240 169 136 139 133 113 121 123 126 127 125 127
26 41 9 3 146 140 78 47 323 7 187 262 248 210 227 213 199 232 256 352 261 234 311 228 224 222 198 198 209 142 96 145 135 143 172 159 170 311 325 312 300 68 85 126 205 334 105 94 80 31 316 314 305 330 350 6 63 74 52 53 90 63 86 138 170 172 134 148 151 89 116 252 288 324 341 350 73 102 98 123 134 121 123 123 124 127 128 129
31 42 30 33 156 157 34 50 300 335 289 320 358 310 273 232 232 264 192 38 0 1 357 282 285 15 8 68 92 74 30 126 98 32 117 132 30 358 7 355 332 39 59 167 173 150 93 79 93 99 31 348 340 344 342 347 29 67 46 8 52 73 71 108 131 79 107 186 156 126 191 250 289 338 6 16 35 65 76 107 132 118 117 122 125 129 131 131
25 43 35 41 72 73 51 42 301 301 306 342 359 353 332 317 24 49 112 86 27 46 58 291 308 353 29 48 67 52 37 69 110 48 24 20 345 6 22 26 33 49 45 75 125 134 113 67 101 125 147 172 181 214 247 263 14 39 64 28 46 94 103 140 126 85 130 195 141 137 196 245 308 349 5 10 15 24 38 69 94 92 105 123 130 132 133 132
34 34 7 25 49 55 46 25 14 5 296 7 21 7 4 316 356 40 73 66 30 45 51 0 337 0 41 46 59 44 24 21 66 74 34 353 320 343 23 50 54 38 30 55 66 102 106 63 71 111 133 178 190 217 234 147 93 60 73 42 33 57 99 102 94 112 177 164 152 218 186 150 348 349 355 353 360 9 9 28 50 61 71 96 118 127 134 138
54 31 332 337 25 37 31 18 17 12 348 21 63 349 357 326 316 19 45 51 33 39 55 32 19 26 19 24 72 54 2 9 39 46 10 330 282 301 4 61 54 22 4 39 29 67 103 45 18 68 57 18 197 177 31 74 88 75 43 24 25 33 52 76 88 164 146 124 208 264 151 106 3 345 347 337 344 358 0 18 39 53 56 64 95 121 131 135
60 41 17 22 2 4 20 4 357 5 17 21 43 2 9 22 32 18 10 38 35 22 41 40 20 19 351 334 111 62 357 18 33 9 343 347 324 328 356 36 38 20 23 43 15 72 113 59 9 65 39 17 31 50 55 58 53 47 30 4 23 46 53 74 92 296 119 137 197 212 93 83 346 338 339 330 339 357 20 41 60 69 69 76 93 108 116 124
62 62 35 48 61 33 31 349 339 11 24 12 10 21 15 22 35 20 350 11 23 9 38 79 13 5 16 38 101 81 14 52 52 359 342 352 339 355 10 351 355 10 24 49 17 52 104 91 111 101 51 5 5 32 59 63 48 36 20 4 43 70 68 73 72 5 75 116 150 118 90 65 330 314 334 351 23 50 59 63 68 72 78 91 98 98 102 109
50 51 25 48 58 28 25 20 3 26 23 6 10 13 9 16 24 28 29 37 26 349 23 74 36 7 34 47 70 88 58 111 105 22 21 23 357 17 40 9 327 351 9 37 8 21 82 140 164 107 75 335 327 11 57 73 78 65 25 9 48 76 69 52 34 35 69 90 117 105 89 68 9 8 23 44 61 64 60 59 60 66 79 92 92 89 91 96
43 44 27 55 43 2 6 20 22 57 28 8 8 360 360 6 3 20 47 40 47 34 2 10 359 2 31 44 55 65 348 252 215 272 288 223 334 336 336 337 341 346 356 14 359 359 67 122 146 89 100 255 300 65 100 94 88 85 43 10 23 70 88 68 25 29 89 138 141 107 99 120 314 32 52 60 63 61 55 53 59 66 76 83 82 80 81 83
36 42 35 70 58 6 3 12 14 57 58 359 344 340 351 3 5 23 61 27 29 36 22 359 340 23 36 38 29 351 323 303 281 294 301 269 270 286 291 305 309 308 328 352 23 19 76 134 145 107 125 180 95 115 137 112 98 120 276 336 17 92 123 108 52 14 19 122 148 142 152 183 209 63 75 64 60 61 56 55 62 68 72 75 75 75 76 78